DateTimeUTC,F1_A11,F1_S11,BsB_S11,BsG_S11,BsR_S11,BbsB_S11,BbsG_S11,BbsR_S11,BaB_A11,BaG_A11,BaR_A11,Tu_S11,T_S11,Uu_S11,U_S11,P_S11,T1_A11
2021-04-05T15:00:00Z,00000200,21000000,,,,,,,0000.00,0000.10,-000.00,16.5,23.6,,00.0,0662.6,31.0
2021-04-05T15:01:00Z,00000200,21000000,,,,,,,0000.48,-000.02,-000.01,16.5,23.6,,00.0,0662.6,31.0
2021-04-05T15:02:00Z,00000200,21000000,,,,,,,0000.69,0001.03,0000.53,16.5,23.6,,00.0,0662.6,31.0
2021-04-05T15:03:00Z,00000200,61000000,,,,,,,0001.57,0001.37,0000.91,16.5,23.7,,00.0,0662.6,31.0
2021-04-05T15:04:00Z,00000200,41000000,0002.49,0001.26,0000.83,0000.70,0000.08,0000.24,0001.05,0000.69,0000.87,16.7,23.5,,00.0,0663.5,30.9
2021-04-05T15:05:00Z,00000200,01000000,0001.53,0001.21,0000.68,0000.82,0000.08,0000.02,0000.68,0000.90,0000.50,16.7,23.5,,00.0,0663.6,31.0
2021-04-05T15:06:00Z,00000200,01000000,0001.95,0001.26,0000.59,0000.71,-000.07,0000.11,0000.87,0000.33,0000.63,16.7,23.4,,00.0,0663.6,30.9
2021-04-05T15:07:00Z,00000200,01000000,0002.06,0001.19,0000.81,0000.04,0000.32,0000.03,0000.83,0001.19,0000.46,16.7,23.4,,00.0,0663.6,30.9
2021-04-05T15:08:00Z,00000200,01000000,0001.92,0001.14,0001.04,0000.69,0000.16,-000.06,0000.82,0000.30,0000.25,16.7,23.4,,00.0,0663.6,30.9
2021-04-05T15:09:00Z,00000200,01000000,0002.28,0001.18,0000.77,0000.90,0000.07,0000.03,0000.78,0000.76,0000.67,16.6,23.4,,00.0,0663.7,30.9
2021-04-05T15:10:00Z,00000200,01000000,0001.05,0001.13,0000.79,0000.13,0000.44,-000.02,0000.71,0000.49,0000.27,16.6,23.4,,00.0,0663.7,30.9
2021-04-05T15:11:00Z,00000200,01000000,0001.99,0001.08,0000.57,0000.13,0000.46,0000.11,0000.46,0000.85,0000.65,16.6,23.4,,00.0,0663.7,30.9
2021-04-05T15:12:00Z,00000200,01000000,0002.26,0001.08,0000.54,0000.44,0000.16,-000.11,0001.20,0000.48,0000.63,16.6,23.3,,00.0,0663.7,30.9
2021-04-05T15:13:00Z,00000200,01000000,0002.24,0001.46,0001.09,0000.33,0000.19,-000.01,0001.00,0001.11,0000.75,16.6,23.3,,00.0,0663.7,30.9
2021-04-05T15:14:00Z,00000200,01000000,0002.33,0001.26,0000.65,0000.74,0000.06,0000.10,0000.77,0001.00,0000.61,16.7,23.3,,00.0,0663.7,30.9
2021-04-05T15:15:00Z,00000200,01000000,0002.06,0001.51,0000.97,0000.39,0000.39,0000.08,0000.61,0000.39,-000.06,16.7,23.4,,00.0,0663.7,31.0
2021-04-05T15:16:00Z,00000200,01000000,0002.15,0001.40,0000.92,0000.06,0000.22,0000.10,0000.77,0001.05,0000.86,16.8,23.5,,00.0,0663.7,31.0
2021-04-05T15:17:00Z,00000200,01000000,0001.93,0001.05,0000.81,0000.25,0000.19,0000.22,0000.77,0000.66,0000.76,16.9,23.5,,00.0,0663.7,31.0
2021-04-05T15:18:00Z,00000200,01000000,0002.87,0001.55,0000.99,0000.16,0000.11,0000.27,0000.45,0000.18,0000.30,16.9,23.5,,00.0,0663.7,31.0
2021-04-05T15:19:00Z,00000200,01000000,0001.87,0001.30,0000.76,0000.43,0000.31,0000.14,0001.21,0001.10,0000.71,16.9,23.5,,00.0,0663.7,31.0
2021-04-05T15:20:00Z,00000200,01000000,0001.59,0001.43,0000.80,0000.49,0000.24,0000.31,0000.54,0000.55,0000.37,16.9,23.5,,00.0,0663.8,31.0
2021-04-05T15:21:00Z,00000200,01000000,0002.37,0001.22,0000.70,0000.42,0000.07,0000.10,0000.55,0000.75,0000.30,16.9,23.5,,00.0,0663.7,31.0
2021-04-05T15:22:00Z,00000200,01000000,0001.95,0001.18,0000.72,0000.32,0000.05,0000.14,0000.78,0000.61,0000.69,16.9,23.5,,00.0,0663.7,31.0
2021-04-05T15:23:00Z,00000200,01000000,0002.58,0001.15,0000.88,0000.26,0000.13,0000.26,0001.09,0001.16,0000.65,16.9,23.5,,00.0,0663.7,31.0
2021-04-05T15:24:00Z,00000200,01000000,0001.92,0001.30,0000.86,0000.47,0000.41,0000.13,0001.24,0000.63,0000.65,16.8,23.5,,00.0,0663.7,30.9
2021-04-05T15:25:00Z,00000200,01000000,0001.95,0001.42,0000.79,0000.16,0000.43,0000.12,0001.06,0001.07,0000.78,16.8,23.5,,00.0,0663.7,30.9
2021-04-05T15:26:00Z,00000200,01000000,0001.72,0001.27,0000.62,0000.82,0000.08,0000.05,0001.11,0001.24,0000.85,16.8,23.5,,00.0,0663.7,30.9
2021-04-05T15:27:00Z,00000200,01000000,0001.68,0001.42,0001.08,0001.02,0000.34,0000.24,0000.84,0000.55,0000.41,16.8,23.4,,00.0,0663.7,30.9
2021-04-05T15:28:00Z,00000200,01000000,0002.20,0001.28,0000.58,0000.20,0000.10,0000.37,0001.06,0001.36,0000.71,16.8,23.5,,00.0,0663.7,30.9
2021-04-05T15:29:00Z,00000200,01000000,0003.09,0001.47,0000.84,0000.84,0000.21,0000.19,0001.13,0000.46,0000.87,16.8,23.5,,00.0,0663.7,31.0
2021-04-05T15:30:00Z,00000200,01000000,0001.64,0001.13,0000.86,0000.51,0000.23,0000.30,0000.72,0001.02,0000.24,16.9,23.5,,00.0,0663.7,31.0
2021-04-05T15:31:00Z,00000200,01000000,0001.93,0001.34,0000.83,0000.08,0000.27,0000.49,0000.77,0000.89,0000.57,17.0,23.5,,00.0,0663.7,31.0
2021-04-05T15:32:00Z,00000200,01000000,0001.68,0001.37,0000.94,0000.19,-000.02,0000.10,0000.70,0000.63,0000.79,17.0,23.6,,00.0,0663.7,31.0
2021-04-05T15:33:00Z,00000200,01000000,0002.34,0001.13,0000.59,0000.55,0000.14,-000.03,0001.02,0000.42,0000.44,17.1,23.6,,00.0,0663.8,31.0
2021-04-05T15:34:00Z,00000200,01000000,0002.13,0001.20,0000.65,0000.26,0000.31,0000.30,0000.69,0000.76,0000.43,17.0,23.6,,00.0,0663.8,31.0
2021-04-05T15:35:00Z,00000200,01000000,0001.60,0001.30,0000.61,0000.54,0000.29,0000.03,0000.01,0000.17,0000.13,17.0,23.6,,00.0,0663.9,31.0
2021-04-05T15:36:00Z,00000200,01000000,0001.76,0001.38,0000.66,0000.64,0000.12,0000.19,0000.10,0000.20,0000.34,17.0,23.6,,00.0,0663.9,31.0
2021-04-05T15:37:00Z,00000200,01000000,0001.59,0001.28,0000.92,-000.03,0000.32,-000.03,0000.42,0000.33,0000.18,16.9,23.6,,00.0,0663.9,31.0
2021-04-05T15:38:00Z,00000200,01000000,0002.49,0001.41,0000.89,0000.41,0000.19,0000.07,0000.74,0000.33,0000.41,16.9,23.5,,00.0,0664.0,31.0
2021-04-05T15:39:00Z,00000200,01000000,0001.97,0001.06,0000.43,0000.31,0000.12,0000.25,0000.59,0000.74,0000.48,16.9,23.5,,00.0,0664.0,30.9
2021-04-05T15:40:00Z,00000200,01000000,0002.42,0001.27,0000.93,-000.07,0000.19,0000.24,0000.74,0000.72,0000.42,16.9,23.5,,00.0,0664.0,30.9
2021-04-05T15:41:00Z,00000200,01000000,0002.41,0001.40,0000.81,0000.24,0000.08,0000.22,0000.75,0000.58,0000.66,16.9,23.5,,00.0,0663.9,30.9
2021-04-05T15:42:00Z,00000200,01000000,0002.42,0001.43,0000.81,0000.70,0000.17,0000.29,0000.54,0000.46,0000.09,16.9,23.5,,00.0,0663.9,30.9
2021-04-05T15:43:00Z,00000200,01000000,0002.18,0001.49,0000.94,0000.71,0000.05,0000.32,0000.76,0000.93,0000.93,16.9,23.5,,00.0,0663.9,30.9
2021-04-05T15:44:00Z,00000200,01000000,0002.14,0001.05,0000.82,0000.57,0000.33,0000.38,0001.11,0000.68,0000.64,16.9,23.5,,00.0,0663.9,31.0
2021-04-05T15:45:00Z,00000200,01000000,0001.76,0001.22,0000.93,0000.55,0000.28,0000.12,0000.56,0000.71,0000.49,17.0,23.5,,00.0,0663.9,31.0
2021-04-05T15:46:00Z,00000200,01000000,0001.73,0001.15,0000.67,0001.06,0000.00,-000.01,0000.80,0000.79,0000.61,17.1,23.6,,00.0,0663.9,31.0
2021-04-05T15:47:00Z,00000200,01000000,0001.79,0001.35,0000.68,0000.63,0000.21,0000.14,0000.90,0000.60,0000.37,17.1,23.6,,00.0,0663.9,31.0
2021-04-05T15:48:00Z,00000200,01000000,0002.03,0001.22,0001.21,0000.55,0000.22,0000.21,0001.11,0001.26,0000.77,17.1,23.6,,00.0,0663.9,31.0
2021-04-05T15:49:00Z,00000200,01000000,0002.45,0001.32,0000.54,0000.68,0000.28,0000.02,0000.54,0000.76,0000.61,17.1,23.6,,00.0,0663.9,31.0
2021-04-05T15:50:00Z,00000200,01000000,0001.89,0001.29,0000.69,0000.87,0000.07,0000.20,0001.26,0000.60,0000.07,17.1,23.6,,00.0,0663.9,31.0
2021-04-05T15:51:00Z,00000200,01000000,0002.30,0001.19,0000.77,0001.18,0000.09,0000.19,0000.62,0000.62,0000.98,17.0,23.6,,00.0,0664.0,31.0
2021-04-05T15:52:00Z,00000200,01000000,0001.90,0001.49,0000.98,0000.24,0000.07,0000.22,-000.18,0000.21,-000.14,17.0,23.6,,00.0,0664.1,31.0
2021-04-05T15:53:00Z,00000200,01000000,0001.95,0001.56,0000.55,0001.04,-000.03,0000.29,-000.00,-000.39,-000.19,17.0,23.6,,00.0,0664.2,31.0
2021-04-05T15:54:00Z,00000200,01000000,0002.34,0001.11,0000.70,0000.13,0000.28,0000.01,-001.21,-001.14,-000.38,16.9,23.6,,00.0,0664.2,31.0
2021-04-05T15:55:00Z,00000200,01000000,0002.16,0001.53,0000.73,0000.47,0000.17,0000.17,-001.41,-000.84,-000.44,16.9,23.6,,00.0,0664.3,30.9
2021-04-05T15:56:00Z,00000200,01000000,0001.89,0001.58,0000.92,0001.12,0000.28,0000.28,0000.26,-000.36,-000.12,16.9,23.5,,00.0,0664.4,30.9
2021-04-05T15:57:00Z,00000200,41000000,,,,,,,0001.79,0001.69,0001.30,16.9,23.6,,00.0,0664.5,30.9
2021-04-05T15:58:00Z,00000200,61000000,,,,,,,-001.35,-000.86,-000.82,16.6,23.7,,00.0,0663.5,31.0
2021-04-05T15:59:00Z,00000200,21000000,,,,,,,-000.57,-000.56,-000.20,16.6,23.8,,00.0,0663.5,31.0
